sat.trackr.live / text

‹ back to catalog

STARLINK-1333

NORAD 45580 · 2020-025BB

PAYLOAD ACTIVE UNKNOWN

§ Identity

Operator
Country
US
Launch date
2020-04-22
Launch site
AFETR
Launch vehicle
Mass (kg)
RCS (m²)

Purposes: comms

External: N2YO · Heavens-Above · Gunter

§ Orbital elements

Epoch: 2026-09-12T07:47:54.035808Z

Period
93.27 min
Inclination
53.1514°
Eccentricity
0.0003594
Mean motion
15.43856263 rev/d
Perigee alt
432.3 km
Apogee alt
437.2 km
Semi-major
6,812.9 km
B*
4.3836e-4
RAAN
283.3407°
Arg perigee
45.2185°
Mean anomaly
314.9113°
Rev number
35,418

§ Raw data

STARLINK-13331 45580U 20025BB  26255.32493097  .00019831  00000+0  43836-3 0  99962 45580  53.1514 283.3407 0003594  45.2185 314.9113 15.43856263354182

JSON: /api/v1/satellites/45580 · /tle

For live sub-satellite position, see the globe view (requires WebGL).

§ Visibility from observer

Set your observer location to see the next 7 days of passes ≥ 10°. The values pass through the URL so the page stays shareable.

No JS? Fill the form by hand. The geolocation button needs JavaScript.